Location: Arbon
(43.0005°N, 0.7472°E)
Time: 07:34:04
(UTC+00:00)

Vanguard 1 - Pass Details

Date: 01 December 2020
Orbit: 648 x 3834 km, 34.3° (Epoch: 21 January)

Event Time Altitude Azimuth Distance (km) Brightness Sun altitude
Rises 11:37:23 0° 268° (W) 5,536 13.9 25.1°
Reaches altitude 10° 11:42:30 10° 250° (WSW) 5,090 14.0 25.1°
Maximum altitude 11:51:13 17° 216° (SW) 5,262 14.9 25.1°
Drops below altitude 10° 12:02:19 10° 182° (S) 6,595 16.2 25.0°
Sets 12:11:00 0° 167° (SSE) 7,909 15.8 24.8°
